Regional Weather Roundup
Issued by NWS

Home | Current Version | Previous Version | Text Only | Print | Product List | Glossary Off
Versions: 1 2 3 4 5 6 7 8 9 10 11 12 13 14 15 16 17 18 19 20 21 22 23 24 25 26 27 28 29 30 31 32 33 34 35 36 37 38 39 40 41 42 43 44 45 46 47 48 49 50

000
ASUS43 KOAX 280810
RWRNE

WEATHER ROUNDUP FOR NEBRASKA
NATIONAL WEATHER SERVICE OMAHA NE
300 AM CDT TUE APR 28 2015

NOTES: SATELLITE DATA IS BEING USED TO AUGMENT CLOUD COVER ABOVE
       12000 FEET.
       "FAIR" INDICATES FEW OR NO CLOUDS BELOW 12,000 FEET WITH NO
       SIGNIFICANT WEATHER AND/OR OBSTRUCTIONS TO VISIBILITY.

  * THESE STATIONS DO NOT REPORT WEATHER SUCH AS RAIN...SNOW OR FOG.

NEZ001>004-019>022-054>056-280900-
NEBRASKA PANHANDLE

CITY           SKY/WX    TMP DP  RH WIND       PRES   REMARKS
SCOTTSBLUFF    CLOUDY    45  41  86 N6        30.35F
ALLIANCE       CLOUDY    39  37  92 N6        30.34S WCI  35
CHADRON        CLOUDY    45  42  89 CALM      30.35F
KIMBALL        CLOUDY    42  41  95 N3        30.32F
SIDNEY         CLOUDY    45  41  86 N7        30.33F
$$

NEZ057>060-069>072-079>082-280900-
SOUTHWEST NEBRASKA

CITY           SKY/WX    TMP DP  RH WIND       PRES   REMARKS
NORTH PLATTE   CLEAR     46  40  79 N17       30.28F
IMPERIAL       CLOUDY    48  40  73 NE15      30.29S
LEXINGTON      CLEAR     46  40  79 N10       30.25F
MCCOOK         PTCLDY    48  38  68 N14       30.25S
OGALLALA       CLOUDY    48  42  80 N3        30.31S
$$

NEZ005>010-023>029-035>040-094-280900-
NORTH CENTRAL NEBRASKA

CITY           SKY/WX    TMP DP  RH WIND       PRES   REMARKS
VALENTINE      MOCLDY    41  39  93 NW6       30.33S
AINSWORTH      CLOUDY    46  42  86 N10       30.31F
BROKEN BOW     CLEAR     47  41  80 N15       30.26F
O`NEILL        CLEAR     45  42  91 NW12      30.26F
ORD            CLEAR     47  41  80 NW12      30.24F
THEDFORD       CLOUDY    47  42  83 N12       30.32F
$$

NEZ041-046>049-061>064-073>077-083>087-280900-
SOUTH CENTRAL NEBRASKA

CITY           SKY/WX    TMP DP  RH WIND       PRES   REMARKS
GRAND ISLAND   CLEAR     39  33  79 NW9       30.23R WCI  33
AURORA         CLEAR     41  33  73 N7        30.20S
HASTINGS       PTCLDY    44  33  65 CALM      30.20F
HEBRON         PTCLDY    43  32  66 CALM      30.18F
HOLDREGE       PTCLDY    41  32  71 N12G17    30.23R
KEARNEY *      PTCLDY    45  36  70 N12       30.24R
YORK           CLEAR     41  34  75 N3        30.20S
$$

NEZ011>018-030>034-042>045-280900-
NORTHEAST NEBRASKA

CITY           SKY/WX    TMP DP  RH WIND       PRES   REMARKS
NORFOLK        CLEAR     42  32  67 W6        30.22R
ALBION         CLEAR     40  33  77 NW7       30.24S WCI  35
BLAIR          CLEAR     53  30  41 N6        30.18S
COLUMBUS *     CLEAR     37  28  70 CALM      30.22S
FREMONT        PTCLDY    42  36  79 W6        30.19F
TEKAMAH        CLEAR     42  34  73 N5        30.19S
WAYNE          CLEAR     36  28  72 CALM      30.21F
$$

NEZ050>053-065>068-078-088>093-280900-
SOUTHEAST NEBRASKA

CITY           SKY/WX    TMP DP  RH WIND       PRES   REMARKS
LINCOLN        CLEAR     41  36  82 N5        30.19F
OMAHA EPPLEY   MOCLDY    41  38  89 N6        30.18F
BEATRICE       CLEAR     39  34  80 NW5       30.17S
FALLS CITY     PTCLDY    50  34  54 N3        30.15F
NEBRASKA CITY  PTCLDY    49  29  46 N5        30.16F
PLATTSMOUTH    PTCLDY    48  32  53 CALM      30.17F
$$

NEZ044-045-051>053-067-280900-
OMAHA AREA

CITY           SKY/WX    TMP DP  RH WIND       PRES   REMARKS
OMAHA EPPLEY   MOCLDY    41  38  89 N6        30.18F
BLAIR          CLEAR     53  30  41 N6        30.18S
FREMONT        PTCLDY    42  36  79 W6        30.19F
MILLARD        CLEAR     46  39  75 NW3       30.18S
OFFUTT AFB     CLEAR     43  38  81 NW7       30.16F
PLATTSMOUTH    PTCLDY    48  32  53 CALM      30.17F
WAHOO          FAIR      42  33  70 NW8       30.19S
$$


USA.gov is the U.S. government's official web portal to all federal, state and local government web resources and services.